| time (UTC) | temp F | wind direction | speed MPH | gust MPH | rain 1hr in | rain 24hr in | rain mn in | humidity % | barometer mb |
| 20260507033705 | 55 | 269 | 6.0 | 12.0 | 0.00 | 0.00 | 0.00 | 87 | 1021.0 |
| 20260507033204 | 55 | 247 | 7.0 | 12.0 | 0.00 | 0.00 | 0.00 | 86 | 1021.0 |
| 20260507032704 | 55 | 264 | 5.0 | 12.0 | 0.00 | 0.00 | 0.00 | 86 | 1021.0 |
| 20260507032205 | 55 | 260 | 5.0 | 10.0 | 0.00 | 0.00 | 0.00 | 86 | 1020.9 |
| 20260507031704 | 55 | 286 | 5.0 | 10.0 | 0.00 | 0.00 | 0.00 | 86 | 1020.9 |
| 20260507031204 | 55 | 279 | 4.0 | 9.0 | 0.00 | 0.00 | 0.00 | 86 | 1020.9 |
| 20260507030705 | 55 | 264 | 5.0 | 8.0 | 0.00 | 0.00 | 0.00 | 86 | 1020.8 |
| 20260507030204 | 55 | 280 | 3.0 | 6.0 | 0.00 | 0.00 | 0.00 | 86 | 1020.8 |
| 20260507025704 | 55 | 262 | 3.0 | 10.0 | 0.00 | 0.00 | 0.00 | 87 | 1020.8 |
| 20260507025205 | 55 | 238 | 3.0 | 7.0 | 0.00 | 0.00 | 0.00 | 87 | 1020.8 |
| 20260507024704 | 55 | 241 | 5.0 | 10.0 | 0.00 | 0.00 | 0.00 | 87 | 1020.8 |
| 20260507023705 | 55 | 249 | 5.0 | 8.0 | 0.00 | 0.00 | 0.00 | 87 | 1020.8 |
| 20260507022704 | 55 | 254 | 5.0 | 10.0 | 0.00 | 0.00 | 0.00 | 87 | 1020.8 |
| 20260507022204 | 55 | 277 | 4.0 | 7.0 | 0.00 | 0.00 | 0.00 | 87 | 1020.8 |
| 20260507021703 | 55 | 271 | 5.0 | 9.0 | 0.00 | 0.00 | 0.00 | 88 | 1020.8 |
| 20260507020707 | 55 | 252 | 3.0 | 7.0 | 0.00 | 0.00 | 0.00 | 88 | 1020.9 |
| 20260507020204 | 55 | 258 | 5.0 | 12.0 | 0.00 | 0.00 | 0.00 | 88 | 1020.9 |
| 20260507015705 | 55 | 271 | 6.0 | 10.0 | 0.00 | 0.00 | 0.00 | 87 | 1020.9 |
| 20260507015206 | 55 | 253 | 6.0 | 12.0 | 0.00 | 0.00 | 0.00 | 87 | 1020.8 |
| 20260507014205 | 55 | 270 | 6.0 | 10.0 | 0.00 | 0.00 | 0.00 | 87 | 1020.8 |
| 20260507013705 | 55 | 260 | 6.0 | 12.0 | 0.00 | 0.00 | 0.00 | 87 | 1020.7 |
| 20260507013204 | 55 | 277 | 7.0 | 12.0 | 0.00 | 0.00 | 0.00 | 87 | 1020.7 |
| 20260507012705 | 55 | 266 | 7.0 | 12.0 | 0.00 | 0.00 | 0.00 | 87 | 1020.7 |
| 20260507011704 | 55 | 260 | 8.0 | 15.0 | 0.00 | 0.00 | 0.00 | 86 | 1020.7 |
| 20260507010705 | 56 | 268 | 7.0 | 12.0 | 0.00 | 0.00 | 0.00 | 86 | 1020.7 |
| 20260507010204 | 56 | 282 | 8.0 | 13.0 | 0.00 | 0.00 | 0.00 | 86 | 1020.7 |
| 20260507005704 | 56 | 271 | 7.0 | 14.0 | 0.00 | 0.00 | 0.00 | 86 | 1020.7 |
| 20260507005204 | 56 | 280 | 7.0 | 10.0 | 0.00 | 0.00 | 0.00 | 86 | 1020.7 |
| 20260507004704 | 56 | 291 | 7.0 | 12.0 | 0.00 | 0.00 | 0.00 | 85 | 1020.8 |
| 20260507004205 | 56 | 282 | 7.0 | 12.0 | 0.00 | 0.00 | 0.00 | 85 | 1020.8 |
| 20260507003704 | 56 | 265 | 7.0 | 8.0 | 0.00 | 0.00 | 0.00 | 85 | 1020.7 |
| 20260507003204 | 56 | 269 | 7.0 | 10.0 | 0.00 | 0.00 | 0.00 | 85 | 1020.7 |
| 20260507002705 | 56 | 275 | 6.0 | 10.0 | 0.00 | 0.00 | 0.00 | 85 | 1020.7 |
| 20260507002206 | 56 | 280 | 4.0 | 10.0 | 0.00 | 0.00 | 0.00 | 85 | 1020.8 |
| 20260507001705 | 56 | 293 | 6.0 | 12.0 | 0.00 | 0.00 | 0.00 | 85 | 1020.7 |
| 20260507001203 | 56 | 266 | 7.0 | 13.0 | 0.00 | 0.00 | 0.00 | 85 | 1020.7 |
| 20260507000705 | 56 | 258 | 6.0 | 12.0 | 0.00 | 0.00 | 0.00 | 86 | 1020.7 |
| 20260507000205 | 56 | 273 | 6.0 | 12.0 | 0.00 | 0.00 | 0.00 | 85 | 1020.7 |
| 20260506235704 | 56 | 272 | 9.0 | 14.0 | 0.00 | 0.00 | 0.00 | 84 | 1020.7 |
| 20260506235205 | 56 | 264 | 9.0 | 13.0 | 0.00 | 0.00 | 0.00 | 85 | 1020.7 |
| 20260506234203 | 57 | 279 | 7.0 | 12.0 | 0.00 | 0.00 | 0.00 | 84 | 1020.6 |
| 20260506233705 | 57 | 252 | 8.0 | 13.0 | 0.00 | 0.00 | 0.00 | 84 | 1020.6 |
| 20260506233205 | 57 | 254 | 9.0 | 12.0 | 0.00 | 0.00 | 0.00 | 84 | 1020.6 |
| 20260506232703 | 57 | 271 | 9.0 | 14.0 | 0.00 | 0.00 | 0.00 | 84 | 1020.6 |
| 20260506232204 | 57 | 272 | 9.0 | 15.0 | 0.00 | 0.00 | 0.00 | 84 | 1020.6 |
| 20260506231705 | 57 | 269 | 10.0 | 14.0 | 0.00 | 0.00 | 0.00 | 84 | 1020.6 |
| 20260506230704 | 57 | 263 | 11.0 | 17.0 | 0.00 | 0.00 | 0.00 | 85 | 1020.7 |
| 20260506225704 | 56 | 256 | 10.0 | 14.0 | 0.00 | 0.00 | 0.00 | 85 | 1020.7 |
| 20260506224704 | 56 | 261 | 9.0 | 13.0 | 0.00 | 0.00 | 0.00 | 85 | 1020.8 |
| 20260506224206 | 56 | 263 | 9.0 | 16.0 | 0.00 | 0.00 | 0.00 | 85 | 1020.8 |
| 20260506223704 | 57 | 293 | 6.0 | 12.0 | 0.00 | 0.00 | 0.00 | 85 | 1020.8 |
| 20260506223204 | 57 | 272 | 7.0 | 13.0 | 0.00 | 0.00 | 0.00 | 84 | 1020.8 |
| 20260506222705 | 57 | 259 | 10.0 | 15.0 | 0.00 | 0.00 | 0.00 | 84 | 1020.8 |
| 20260506222204 | 57 | 251 | 8.0 | 14.0 | 0.00 | 0.00 | 0.00 | 84 | 1020.8 |
| 20260506221705 | 57 | 253 | 8.0 | 16.0 | 0.00 | 0.00 | 0.00 | 83 | 1020.8 |
| 20260506221204 | 57 | 264 | 9.0 | 13.0 | 0.00 | 0.00 | 0.00 | 83 | 1020.8 |
| 20260506220205 | 57 | 285 | 9.0 | 14.0 | 0.00 | 0.00 | 0.00 | 83 | 1020.8 |
| 20260506215704 | 57 | 280 | 7.0 | 14.0 | 0.00 | 0.00 | 0.00 | 83 | 1020.8 |
| 20260506214703 | 57 | 279 | 7.0 | 12.0 | 0.00 | 0.00 | 0.00 | 83 | 1020.9 |
| 20260506214204 | 57 | 245 | 10.0 | 14.0 | 0.00 | 0.00 | 0.00 | 82 | 1020.7 |
| 20260506213204 | 57 | 273 | 5.0 | 8.0 | 0.00 | 0.00 | 0.00 | 82 | 1020.8 |
| 20260506212705 | 57 | 261 | 6.0 | 13.0 | 0.00 | 0.00 | 0.00 | 82 | 1020.9 |
| 20260506211704 | 57 | 265 | 8.0 | 12.0 | 0.00 | 0.00 | 0.00 | 82 | 1020.9 |
| 20260506211204 | 56 | 271 | 9.0 | 14.0 | 0.00 | 0.00 | 0.00 | 82 | 1020.9 |
| 20260506210704 | 56 | 279 | 9.0 | 12.0 | 0.00 | 0.00 | 0.00 | 82 | 1020.8 |
| 20260506205704 | 57 | 273 | 7.0 | 13.0 | 0.00 | 0.00 | 0.00 | 81 | 1020.9 |
| 20260506205205 | 57 | 268 | 7.0 | 12.0 | 0.00 | 0.00 | 0.00 | 81 | 1020.9 |
| 20260506204704 | 57 | 261 | 6.0 | 12.0 | 0.00 | 0.00 | 0.00 | 82 | 1020.8 |
| 20260506204205 | 57 | 282 | 5.0 | 12.0 | 0.00 | 0.00 | 0.00 | 82 | 1020.9 |
| 20260506203705 | 57 | 253 | 8.0 | 12.0 | 0.00 | 0.00 | 0.00 | 81 | 1020.9 |
| 20260506203203 | 57 | 264 | 6.0 | 10.0 | 0.00 | 0.00 | 0.00 | 81 | 1020.9 |
| 20260506202704 | 57 | 282 | 4.0 | 12.0 | 0.00 | 0.00 | 0.00 | 82 | 1020.8 |
| 20260506202204 | 57 | 277 | 8.0 | 12.0 | 0.00 | 0.00 | 0.00 | 82 | 1020.8 |
| 20260506201704 | 57 | 257 | 5.0 | 9.0 | 0.00 | 0.00 | 0.00 | 82 | 1020.8 |
| 20260506200204 | 56 | 268 | 6.0 | 10.0 | 0.00 | 0.00 | 0.00 | 83 | 1020.8 |
| 20260506195704 | 56 | 274 | 7.0 | 12.0 | 0.00 | 0.00 | 0.00 | 84 | 1020.8 |
| 20260506195205 | 56 | 236 | 6.0 | 10.0 | 0.00 | 0.00 | 0.00 | 85 | 1020.8 |
| 20260506193705 | 55 | 264 | 8.0 | 14.0 | 0.00 | 0.00 | 0.00 | 86 | 1020.7 |
| 20260506193205 | 54 | 268 | 5.0 | 12.0 | 0.00 | 0.00 | 0.00 | 86 | 1020.8 |
| 20260506192704 | 54 | 286 | 7.0 | 14.0 | 0.00 | 0.00 | 0.00 | 86 | 1020.8 |
| 20260506192205 | 54 | 276 | 8.0 | 13.0 | 0.00 | 0.00 | 0.00 | 86 | 1020.8 |
| 20260506191204 | 54 | 245 | 6.0 | 12.0 | 0.00 | 0.00 | 0.00 | 86 | 1020.7 |
| 20260506190705 | 54 | 256 | 6.0 | 12.0 | 0.00 | 0.00 | 0.00 | 86 | 1020.7 |
| 20260506190205 | 54 | 265 | 6.0 | 10.0 | 0.00 | 0.00 | 0.00 | 87 | 1020.6 |
| 20260506185704 | 54 | 252 | 7.0 | 12.0 | 0.00 | 0.00 | 0.00 | 87 | 1020.6 |
| 20260506185204 | 54 | 255 | 9.0 | 13.0 | 0.00 | 0.00 | 0.00 | 86 | 1020.6 |
| 20260506184704 | 54 | 269 | 9.0 | 12.0 | 0.00 | 0.00 | 0.00 | 86 | 1020.6 |
| 20260506184204 | 54 | 252 | 6.0 | 10.0 | 0.00 | 0.00 | 0.00 | 86 | 1020.6 |
| 20260506183705 | 54 | 266 | 6.0 | 10.0 | 0.00 | 0.00 | 0.00 | 86 | 1020.5 |
| 20260506183205 | 54 | 263 | 8.0 | 12.0 | 0.00 | 0.00 | 0.00 | 86 | 1020.5 |
| 20260506182704 | 54 | 253 | 9.0 | 13.0 | 0.00 | 0.00 | 0.00 | 85 | 1020.5 |
| 20260506182204 | 54 | 264 | 5.0 | 12.0 | 0.00 | 0.00 | 0.00 | 87 | 1020.4 |
| 20260506181704 | 54 | 269 | 9.0 | 12.0 | 0.00 | 0.00 | 0.00 | 85 | 1020.4 |
| 20260506181205 | 54 | 263 | 5.0 | 12.0 | 0.00 | 0.00 | 0.00 | 86 | 1020.4 |
| 20260506180704 | 54 | 257 | 5.0 | 9.0 | 0.00 | 0.00 | 0.00 | 86 | 1020.5 |
| 20260506180204 | 54 | 253 | 6.0 | 12.0 | 0.00 | 0.00 | 0.00 | 87 | 1020.5 |
| 20260506175703 | 54 | 269 | 6.0 | 9.0 | 0.00 | 0.00 | 0.00 | 86 | 1020.4 |
| 20260506175204 | 54 | 262 | 7.0 | 12.0 | 0.00 | 0.00 | 0.00 | 86 | 1020.4 |
| 20260506174704 | 54 | 257 | 9.0 | 13.0 | 0.00 | 0.00 | 0.00 | 86 | 1020.4 |
| 20260506174203 | 54 | 270 | 6.0 | 12.0 | 0.00 | 0.00 | 0.00 | 86 | 1020.3 |
| 20260506173205 | 54 | 263 | 6.0 | 12.0 | 0.00 | 0.00 | 0.00 | 87 | 1020.3 |
| 20260506172704 | 54 | 273 | 6.0 | 12.0 | 0.00 | 0.00 | 0.00 | 86 | 1020.2 |
| 20260506172205 | 54 | 253 | 7.0 | 12.0 | 0.00 | 0.00 | 0.00 | 86 | 1020.2 |
| 20260506171703 | 54 | 264 | 9.0 | 12.0 | 0.00 | 0.00 | 0.00 | 86 | 1020.2 |
| 20260506171204 | 54 | 258 | 6.0 | 9.0 | 0.00 | 0.00 | 0.00 | 86 | 1020.3 |
| 20260506170704 | 54 | 289 | 9.0 | 12.0 | 0.00 | 0.00 | 0.00 | 86 | 1020.2 |
| 20260506165704 | 54 | 254 | 4.0 | 9.0 | 0.00 | 0.00 | 0.00 | 86 | 1020.1 |
| 20260506165205 | 54 | 260 | 5.0 | 12.0 | 0.00 | 0.00 | 0.00 | 86 | 1019.9 |
| 20260506164704 | 54 | 266 | 5.0 | 8.0 | 0.00 | 0.00 | 0.00 | 87 | 1019.9 |
| 20260506164204 | 53 | 293 | 4.0 | 8.0 | 0.00 | 0.00 | 0.00 | 87 | 1019.8 |
| 20260506163706 | 53 | 273 | 7.0 | 9.0 | 0.00 | 0.00 | 0.00 | 86 | 1019.9 |
| 20260506163204 | 54 | 278 | 5.0 | 10.0 | 0.00 | 0.00 | 0.00 | 88 | 1020.0 |
| 20260506162205 | 53 | 287 | 5.0 | 8.0 | 0.00 | 0.00 | 0.00 | 88 | 1020.1 |
| 20260506160705 | 53 | 259 | 3.0 | 6.0 | 0.00 | 0.00 | 0.00 | 89 | 1020.0 |
| 20260506155704 | 52 | 262 | 5.0 | 10.0 | 0.00 | 0.00 | 0.00 | 90 | 1020.1 |
| 20260506155204 | 52 | 259 | 6.0 | 10.0 | 0.00 | 0.00 | 0.00 | 90 | 1020.2 |
| 20260506154705 | 52 | 258 | 5.0 | 10.0 | 0.00 | 0.00 | 0.00 | 90 | 1020.1 |
| 20260506154204 | 52 | 265 | 5.0 | 10.0 | 0.00 | 0.00 | 0.00 | 90 | 1020.2 |
| 20260506153704 | 52 | 261 | 6.0 | 12.0 | 0.00 | 0.00 | 0.00 | 90 | 1020.2 |
| 20260506152704 | 52 | 266 | 4.0 | 9.0 | 0.00 | 0.00 | 0.00 | 90 | 1020.1 |
| 20260506151704 | 52 | 289 | 4.0 | 8.0 | 0.00 | 0.00 | 0.00 | 90 | 1020.0 |
| 20260506151204 | 52 | 278 | 3.0 | 8.0 | 0.00 | 0.00 | 0.00 | 90 | 1019.9 |
| 20260506150705 | 52 | 253 | 4.0 | 8.0 | 0.00 | 0.00 | 0.00 | 90 | 1019.7 |
| 20260506145704 | 52 | 257 | 3.0 | 8.0 | 0.00 | 0.00 | 0.00 | 90 | 1019.7 |
| 20260506145205 | 52 | 270 | 3.0 | 9.0 | 0.00 | 0.00 | 0.00 | 91 | 1019.7 |
| 20260506144704 | 52 | 264 | 2.0 | 3.0 | 0.00 | 0.00 | 0.00 | 91 | 1019.6 |
| 20260506144204 | 52 | 291 | 0.0 | 2.0 | 0.00 | 0.00 | 0.00 | 91 | 1019.4 |
| 20260506143705 | 52 | 291 | 1.0 | 3.0 | 0.00 | 0.00 | 0.00 | 91 | 1019.4 |
| 20260506143205 | 52 | 268 | 2.0 | 3.0 | 0.00 | 0.00 | 0.00 | 91 | 1019.4 |
| 20260506142704 | 52 | 275 | 2.0 | 5.0 | 0.00 | 0.00 | 0.00 | 91 | 1019.4 |
| 20260506142204 | 52 | 305 | 2.0 | 7.0 | 0.00 | 0.00 | 0.00 | 91 | 1019.4 |
| 20260506141703 | 52 | 256 | 1.0 | 3.0 | 0.00 | 0.00 | 0.00 | 91 | 1019.5 |
| 20260506140704 | 52 | 284 | 5.0 | 8.0 | 0.00 | 0.00 | 0.00 | 91 | 1019.5 |
| 20260506135703 | 52 | 258 | 2.0 | 6.0 | 0.00 | 0.00 | 0.00 | 91 | 1019.2 |
| 20260506134205 | 52 | 286 | 1.0 | 3.0 | 0.00 | 0.00 | 0.00 | 91 | 1019.1 |
| 20260506133205 | 52 | 223 | 0.0 | 0.0 | 0.00 | 0.00 | 0.00 | 91 | 1019.1 |
| 20260506132704 | 52 | 275 | 0.0 | 3.0 | 0.00 | 0.00 | 0.00 | 91 | 1019.1 |
| 20260506132204 | 52 | 279 | 1.0 | 2.0 | 0.00 | 0.00 | 0.00 | 91 | 1019.0 |
| 20260506131704 | 52 | 259 | 1.0 | 2.0 | 0.00 | 0.00 | 0.00 | 91 | 1019.0 |
| 20260506130204 | 52 | 174 | 0.0 | 2.0 | 0.00 | 0.00 | 0.00 | 91 | 1018.9 |
| 20260506125704 | 52 | 242 | 1.0 | 3.0 | 0.00 | 0.00 | 0.00 | 91 | 1018.9 |
| 20260506125204 | 52 | 238 | 1.0 | 6.0 | 0.00 | 0.00 | 0.00 | 91 | 1018.9 |
| 20260506124704 | 52 | 269 | 2.0 | 6.0 | 0.00 | 0.00 | 0.00 | 91 | 1018.8 |
| 20260506124205 | 52 | 266 | 2.0 | 6.0 | 0.00 | 0.00 | 0.00 | 91 | 1018.9 |
| 20260506123705 | 52 | 264 | 3.0 | 7.0 | 0.00 | 0.00 | 0.00 | 91 | 1018.9 |
| 20260506123204 | 52 | 244 | 3.0 | 7.0 | 0.00 | 0.00 | 0.00 | 91 | 1018.9 |
| 20260506122704 | 52 | 263 | 2.0 | 5.0 | 0.00 | 0.00 | 0.00 | 91 | 1018.9 |
| 20260506122205 | 52 | 242 | 5.0 | 9.0 | 0.00 | 0.00 | 0.00 | 91 | 1018.9 |
| 20260506121704 | 52 | 255 | 5.0 | 9.0 | 0.00 | 0.00 | 0.00 | 91 | 1018.8 |
| 20260506121204 | 52 | 260 | 2.0 | 7.0 | 0.00 | 0.00 | 0.00 | 91 | 1018.9 |
| 20260506120705 | 52 | 255 | 5.0 | 8.0 | 0.00 | 0.00 | 0.00 | 91 | 1018.9 |
| 20260506120205 | 52 | 267 | 4.0 | 7.0 | 0.00 | 0.00 | 0.00 | 91 | 1018.8 |
| 20260506115704 | 52 | 273 | 5.0 | 8.0 | 0.00 | 0.00 | 0.00 | 91 | 1018.8 |
| 20260506115205 | 52 | 241 | 3.0 | 6.0 | 0.00 | 0.00 | 0.00 | 91 | 1018.8 |
| 20260506114704 | 52 | 269 | 3.0 | 6.0 | 0.00 | 0.00 | 0.00 | 91 | 1018.7 |
| 20260506113205 | 52 | 264 | 3.0 | 8.0 | 0.00 | 0.00 | 0.00 | 91 | 1018.4 |
| 20260506112704 | 52 | 287 | 3.0 | 7.0 | 0.00 | 0.00 | 0.00 | 91 | 1018.4 |
| 20260506112204 | 52 | 275 | 3.0 | 9.0 | 0.00 | 0.00 | 0.00 | 91 | 1018.4 |
| 20260506110704 | 52 | 282 | 4.0 | 9.0 | 0.00 | 0.00 | 0.00 | 91 | 1018.2 |
| 20260506105705 | 52 | 267 | 6.0 | 10.0 | 0.00 | 0.00 | 0.00 | 91 | 1018.2 |
| 20260506105205 | 52 | 285 | 5.0 | 9.0 | 0.00 | 0.00 | 0.00 | 91 | 1018.2 |
| 20260506104203 | 52 | 271 | 3.0 | 7.0 | 0.00 | 0.00 | 0.00 | 91 | 1018.1 |
| 20260506103704 | 52 | 278 | 4.0 | 7.0 | 0.00 | 0.00 | 0.00 | 91 | 1017.9 |
| 20260506103204 | 52 | 276 | 3.0 | 6.0 | 0.00 | 0.00 | 0.00 | 91 | 1017.9 |
| 20260506102204 | 52 | 301 | 2.0 | 3.0 | 0.00 | 0.00 | 0.00 | 91 | 1017.8 |
| 20260506101703 | 52 | 276 | 2.0 | 3.0 | 0.00 | 0.00 | 0.00 | 91 | 1017.8 |
| 20260506101204 | 52 | 274 | 2.0 | 3.0 | 0.00 | 0.00 | 0.00 | 91 | 1017.7 |
| 20260506100706 | 52 | 291 | 3.0 | 3.0 | 0.00 | 0.00 | 0.00 | 91 | 1017.6 |
| 20260506095204 | 52 | 255 | 2.0 | 3.0 | 0.00 | 0.00 | 0.00 | 91 | 1017.6 |
| 20260506094704 | 52 | 266 | 2.0 | 6.0 | 0.00 | 0.00 | 0.00 | 91 | 1017.6 |
| 20260506093705 | 52 | 285 | 1.0 | 7.0 | 0.00 | 0.00 | 0.00 | 91 | 1017.7 |
| 20260506092704 | 52 | 264 | 2.0 | 5.0 | 0.00 | 0.00 | 0.00 | 91 | 1017.7 |
| 20260506092204 | 52 | 257 | 3.0 | 5.0 | 0.00 | 0.00 | 0.00 | 92 | 1017.6 |
| 20260506091705 | 52 | 269 | 2.0 | 3.0 | 0.00 | 0.00 | 0.00 | 92 | 1017.6 |
| 20260506091204 | 52 | 272 | 2.0 | 3.0 | 0.00 | 0.00 | 0.00 | 92 | 1017.6 |
| 20260506090705 | 52 | 289 | 4.0 | 7.0 | 0.00 | 0.00 | 0.00 | 92 | 1017.6 |
| 20260506090204 | 52 | 261 | 2.0 | 8.0 | 0.00 | 0.00 | 0.00 | 92 | 1017.6 |
| 20260506085704 | 52 | 284 | 3.0 | 9.0 | 0.00 | 0.00 | 0.00 | 92 | 1017.6 |
| 20260506084704 | 52 | 274 | 4.0 | 8.0 | 0.00 | 0.00 | 0.00 | 92 | 1017.6 |
| 20260506084204 | 52 | 273 | 4.0 | 7.0 | 0.00 | 0.00 | 0.00 | 92 | 1017.6 |
| 20260506083705 | 52 | 271 | 5.0 | 8.0 | 0.00 | 0.00 | 0.00 | 93 | 1017.6 |
| 20260506082205 | 52 | 281 | 3.0 | 7.0 | 0.00 | 0.00 | 0.00 | 94 | 1017.5 |
| 20260506081705 | 52 | 272 | 5.0 | 9.0 | 0.00 | 0.00 | 0.00 | 94 | 1017.5 |
| 20260506081204 | 52 | 264 | 4.0 | 8.0 | 0.00 | 0.00 | 0.00 | 95 | 1017.5 |
| 20260506080704 | 52 | 273 | 5.0 | 9.0 | 0.00 | 0.00 | 0.00 | 95 | 1017.4 |
| 20260506073204 | 47 | 201 | 0.0 | 0.0 | 0.00 | 0.00 | 0.00 | 95 | 1017.0 |
| 20260506072704 | 47 | 201 | 0.0 | 0.0 | 0.00 | 0.00 | 0.00 | 95 | 1017.0 |
| 20260506071704 | 46 | 201 | 0.0 | 0.0 | 0.00 | 0.00 | 0.00 | 94 | 1016.9 |
| 20260506071204 | 46 | 201 | 0.0 | 0.0 | 0.00 | 0.00 | 0.00 | 93 | 1016.9 |
| 20260506070206 | 47 | 201 | 0.0 | 0.0 | 0.00 | 0.00 | 0.00 | 94 | 1016.8 |
| 20260506062205 | 47 | 215 | 1.0 | 2.0 | 0.00 | 0.00 | 0.00 | 92 | 1016.6 |
| 20260506061704 | 48 | 209 | 1.0 | 3.0 | 0.00 | 0.00 | 0.00 | 92 | 1016.6 |
| 20260506061203 | 48 | 209 | 1.0 | 2.0 | 0.00 | 0.00 | 0.00 | 91 | 1016.5 |
| 20260506060705 | 49 | 197 | 1.0 | 3.0 | 0.00 | 0.00 | 0.00 | 92 | 1016.5 |
| 20260506060204 | 50 | 197 | 1.0 | 3.0 | 0.00 | 0.00 | 0.00 | 91 | 1016.5 |
| 20260506051205 | 52 | 268 | 6.0 | 10.0 | 0.00 | 0.00 | 0.00 | 91 | 1016.5 |
| 20260506050705 | 52 | 259 | 6.0 | 10.0 | 0.00 | 0.00 | 0.00 | 91 | 1016.5 |
| 20260506050204 | 52 | 263 | 7.0 | 12.0 | 0.00 | 0.00 | 0.00 | 91 | 1016.5 |
| 20260506044704 | 52 | 265 | 7.0 | 12.0 | 0.00 | 0.00 | 0.00 | 91 | 1016.3 |
| 20260506044204 | 52 | 271 | 9.0 | 12.0 | 0.00 | 0.00 | 0.00 | 91 | 1016.4 |
| 20260506043706 | 52 | 267 | 7.0 | 10.0 | 0.00 | 0.00 | 0.00 | 91 | 1016.3 |
| 20260506043203 | 52 | 259 | 6.0 | 12.0 | 0.00 | 0.00 | 0.00 | 91 | 1016.2 |
| 20260506042704 | 52 | 267 | 6.0 | 10.0 | 0.00 | 0.00 | 0.00 | 91 | 1016.1 |
| 20260506042204 | 52 | 256 | 7.0 | 12.0 | 0.00 | 0.00 | 0.00 | 91 | 1016.0 |
| 20260506041704 | 52 | 266 | 6.0 | 12.0 | 0.00 | 0.00 | 0.00 | 91 | 1016.0 |
| 20260506041203 | 52 | 271 | 6.0 | 12.0 | 0.00 | 0.00 | 0.00 | 91 | 1015.9 |
| 20260506040704 | 52 | 269 | 6.0 | 14.0 | 0.00 | 0.00 | 0.00 | 90 | 1015.7 |
| 20260506040205 | 53 | 273 | 8.0 | 12.0 | 0.00 | 0.00 | 0.00 | 90 | 1015.7 |
| 20260506035205 | 53 | 273 | 7.0 | 10.0 | 0.00 | 0.00 | 0.00 | 90 | 1015.5 |
| 20260506034704 | 53 | 266 | 7.0 | 12.0 | 0.00 | 0.00 | 0.00 | 90 | 1015.5 |
| 20260506034204 | 53 | 281 | 6.0 | 9.0 | 0.00 | 0.00 | 0.00 | 90 | 1015.4 |